Regional Weather Roundup
Issued by NWS Nashville, TN

Home | Current Version | Previous Version | Text Only | Print | Product List | Glossary On
Versions: 1 2 3 4 5 6 7 8 9 10 11 12 13 14 15 16 17 18 19 20 21 22 23 24 25 26 27 28 29 30 31 32 33 34 35 36 37 38 39 40 41 42 43 44 45 46 47 48 49 50
000
ASUS44 KOHX 030210
RWROHX
MIDDLE TENNESSEE HOURLY WEATHER ROUNDUP
NATIONAL WEATHER SERVICE NASHVILLE TN
900 PM CDT WED SEP 02 2015

NOTE: "FAIR" INDICATES FEW OR NO CLOUDS BELOW 12,000 FEET WITH
NO SIGNIFICANT WEATHER AND/OR OBSTRUCTIONS TO VISIBILITY.

* THESE REPORTS ARE NOT UNDER NWS QUALITY CONTROL AND MAY NOT
  REPORT WEATHER SUCH AS PRECIPITATION AND FOG.


TNZ005>011-023>034-057-059-062>066-078-080-030300
...NORTHERN MIDDLE TENNESSEE...

CITY           SKY/WX    TMP DP  RH WIND       PRES   REMARKS
CLARKSVILLE    PTCLDY    75  68  78 CALM      30.01R
CROSSVILLE     MOCLDY    74  68  81 CALM      30.11R
DICKSON        PTCLDY    77  70  78 CALM      30.02S
NASHVILLE      CLOUDY    84  66  54 CALM      30.02R
ROCKWOOD       CLOUDY    76  69  79 VRB3      30.09
SMYRNA         CLOUDY    80  71  74 S5        30.03R
$$
TNZ056-058-060-061-075>077-079-093>097-030300
...SOUTHERN MIDDLE TENNESSEE...

CITY           SKY/WX    TMP DP  RH WIND       PRES   REMARKS
COLUMBIA       CLEAR     79  79 100 S3        30.02R
LEWISBURG      CLOUDY    77  72  84 CALM      30.02R
MCMINNVILLE    CLEAR     73  73 100 CALM      30.06R
SHELBYVILLE    CLEAR     75  73  94 SE3       30.05R
TULLAHOMA      CLEAR     75  70  83 CALM      30.07R
WINCHESTER     CLEAR     75  73  94 CALM      30.06R
$$


...KEY TO REMARKS...
VSB - VISIBILITY IN MILES
WCI - WIND CHILL INDEX
HX  - HEAT INDEX




USA.gov is the U.S. government's official web portal to all federal, state and local government web resources and services.